K3IR Weather Reports


time (UTC)temp
F
wind
direction
speed
knots
gust
knots
rain 1hr
in
rain 24hr
in
rain mn
in
humidity
%
barometer
mb
20260505124543 65 0.0 0.0 0.00 0.00 0.00 69 1011.7
20260505123038 64 0.0 0.0 0.00 0.00 0.00 71 1011.7
20260505121543 63 0.0 0.0 0.00 0.00 0.00 72 1011.4
20260505120048 62 0.0 0.0 0.00 0.00 0.00 72 1011.3
20260505114542 60 0.0 0.0 0.00 0.00 0.00 77 1011.1
20260505113036 58 0.0 0.0 0.00 0.00 0.00 79 1011.1
20260505111542 57 0.0 0.0 0.00 0.00 0.00 80 1010.9
20260505101544 55 0.0 0.0 0.00 0.00 0.00 77 1010.3
20260505100043 56 0.0 0.0 0.00 0.00 0.00 76 1010.2
20260505094540 57 0.0 0.0 0.00 0.00 0.00 74 1010.1
20260505093040 56 0.0 0.0 0.00 0.00 0.00 75 1010.0
20260505091537 57 0.0 0.0 0.00 0.00 0.00 74 1010.1
20260505090047 57 0.0 0.0 0.00 0.00 0.00 75 1009.9
20260505084548 57 0.0 0.0 0.00 0.00 0.00 73 1009.9
20260505083041 57 0.0 0.0 0.00 0.00 0.00 73 1009.9
20260505081537 58 0.0 0.0 0.00 0.00 0.00 72 1009.8
20260505080037 57 0.0 0.0 0.00 0.00 0.00 74 1009.9
20260505074544 56 0.0 0.0 0.00 0.00 0.00 75 1009.9
20260505073046 57 0.0 0.0 0.00 0.00 0.00 73 1009.6
20260505071541 59 0.0 0.0 0.00 0.00 0.00 70 1009.6
20260505070050 59 0.0 0.0 0.00 0.00 0.00 70 1009.7
20260505064544 59 0.0 0.0 0.00 0.00 0.00 69 1009.8
20260505063052 59 0.0 0.0 0.00 0.00 0.00 69 1010.0
20260505061544 59 0.0 0.0 0.00 0.00 0.00 69 1010.1
20260505060044 59 0.0 0.0 0.00 0.00 0.00 68 1010.0
20260505054542 59 0.0 0.0 0.00 0.00 0.00 69 1010.1
20260505053055 58 0.0 0.0 0.00 0.00 0.00 70 1010.0
20260505051542 58 0.0 0.0 0.00 0.00 0.00 69 1010.0
20260505041550 59 0.0 0.0 0.00 0.00 0.00 65 1009.8
20260505040053 59 0.0 0.0 0.00 0.00 0.00 65 1010.0
20260505034542 59 0.0 0.0 0.00 0.00 0.00 65 1009.7
20260505033042 59 0.0 0.0 0.00 0.00 0.00 64 1009.7
20260505031548 60 0.0 0.0 0.00 0.00 0.00 64 1009.7
20260505030041 60 0.0 0.0 0.00 0.00 0.00 64 1009.6
20260505024547 60 0.0 0.0 0.00 0.00 0.00 63 1009.6
20260505023038 61 0.0 0.0 0.00 0.00 0.00 61 1009.8
20260505021541 61 0.0 0.0 0.00 0.00 0.00 60 1009.9
20260505020041 61 0.0 0.0 0.00 0.00 0.00 60 1009.9
20260505014600 60 0.0 0.0 0.00 0.00 0.00 61 1009.9
20260505013038 60 0.0 0.0 0.00 0.00 0.00 62 1010.1
20260505011554 61 0.0 0.0 0.00 0.00 0.00 60 1009.9
20260505010043 62 0.0 0.0 0.00 0.00 0.00 59 1009.6
20260505004543 62 0.0 0.0 0.00 0.00 0.00 58 1009.6
20260505003040 63 0.0 0.0 0.00 0.00 0.00 57 1009.6
20260505001542 64 0.0 0.0 0.00 0.00 0.00 56 1009.4
20260505000053 65 0.0 0.0 0.00 0.00 0.00 54 1009.2
20260504234545 66 0.0 0.0 0.00 0.00 0.00 53 1009.2
20260504233101 67 0.0 0.0 0.00 0.00 0.00 52 1009.1
20260504231544 69 0.0 0.0 0.00 0.00 0.00 50 1009.1
20260504230041 70 0.0 0.0 0.00 0.00 0.00 45 1009.0
20260504224542 71 0.0 0.0 0.00 0.00 0.00 45 1009.0
20260504223054 71 0.0 0.0 0.00 0.00 0.00 43 1009.1
20260504221544 71 0.0 0.0 0.00 0.00 0.00 44 1009.0
20260504220043 72 0.0 0.0 0.00 0.00 0.00 45 1009.0
20260504214537 72 0.0 0.0 0.00 0.00 0.00 42 1009.1
20260504213053 72 0.0 0.0 0.00 0.00 0.00 42 1009.1
20260504211540 72 0.0 0.0 0.00 0.00 0.00 42 1009.1
20260504210040 72 0.0 0.0 0.00 0.00 0.00 41 1009.2
20260504204547 72 0.0 0.0 0.00 0.00 0.00 41 1009.2
20260504203058 71 0.0 0.0 0.00 0.00 0.00 43 1009.5
20260504201542 72 0.0 0.0 0.00 0.00 0.00 43 1009.7
20260504200043 72 0.0 0.0 0.00 0.00 0.00 46 1009.7
20260504194541 71 0.0 0.0 0.00 0.00 0.00 43 1010.1
20260504193041 71 0.0 0.0 0.00 0.00 0.00 43 1010.2
20260504191536 70 0.0 0.0 0.00 0.00 0.00 44 1010.4
20260504190047 70 0.0 0.0 0.00 0.00 0.00 43 1010.5
20260504184543 70 0.0 0.0 0.00 0.00 0.00 44 1010.9
20260504183040 70 0.0 0.0 0.00 0.00 0.00 44 1011.0
20260504181546 69 0.0 0.0 0.00 0.00 0.00 44 1011.1
20260504180037 69 0.0 0.0 0.00 0.00 0.00 44 1011.4
20260504174536 68 0.0 0.0 0.00 0.00 0.00 45 1011.3
20260504173042 68 0.0 0.0 0.00 0.00 0.00 44 1011.6
20260504171547 67 0.0 0.0 0.00 0.00 0.00 45 1011.9